{"data":{"norad_id":40424,"epoch":"2026-09-19T08:24:11.200032Z","epoch_age_seconds":121240,"freshness":"FRESH","line1":"1 40424U 15010A   26262.35012963 -.00000031  00000+0  00000+0 0  9991","line2":"2 40424   0.0035 179.7278 0001973 302.3649 359.2216  1.00272194 42327","mean_motion":1.00272194,"eccentricity":0.0001973,"inclination_deg":0.0035,"raan_deg":179.7278,"arg_perigee_deg":302.3649,"mean_anomaly_deg":359.2216,"bstar":0,"rev_number":4232,"period_min":1436.0910463373,"perigee_km":35778.161225039,"apogee_km":35794.799383027,"semimajor_km":42164.617304033,"source":"CELESTRAK","updated_at":"2026-09-20T09:00:35.215213Z"}}